Location: Vienna
(48.2082°N, 16.3738°E)
Time: 09:52:02
(UTC+02:00)

ISS - Pass Details

Date: 16 July 2018
Orbit: 402 x 408 km, 51.6° (Epoch: 23 July)

Event Time Altitude Azimuth Distance (km) Brightness Sun altitude
Exits shadow 00:59:03 46° 76° (ENE) 556 -3.1 -20.4°
Drops below altitude 10° 01:01:29 10° 69° (ENE) 1,472 -0.7 -20.4°
Sets 01:03:35 0° 68° (ENE) 2,336 0.3 -20.4°
